Time,TemperatureF,DewpointF,PressureIn,WindDirection,WindDirectionDegrees,WindSpeedMPH,WindSpeedGustMPH,Humidity,HourlyPrecipIn,Conditions,Clouds,dailyrainin,SolarRadiationWatts/m^2,SoftwareType,DateUTC
2013-10-13 00:02:00,39.0,39.0,-100.00,NW,308,0.0,1.0,99,0.00,,,0.00,0.000000,,2013-10-13 08:02:00,
2013-10-13 00:12:00,39.0,39.0,-100.00,NW,308,0.0,1.0,99,0.00,,,0.00,0.000000,,2013-10-13 08:12:00,
2013-10-13 00:22:00,39.0,39.0,-100.00,NW,308,0.0,1.0,99,0.00,,,0.00,0.000000,,2013-10-13 08:22:00,
2013-10-13 00:52:00,39.0,39.0,-100.00,WNW,295,0.0,1.0,99,0.00,,,0.00,0.000000,,2013-10-13 08:52:00,
2013-10-13 01:02:00,39.0,39.0,-100.00,WNW,295,0.0,1.0,99,0.00,,,0.00,0.000000,,2013-10-13 09:02:00,
2013-10-13 01:11:00,39.0,39.0,-100.00,WNW,295,0.0,1.0,99,0.00,,,0.00,0.000000,,2013-10-13 09:11:00,
2013-10-13 01:22:00,39.0,39.0,-100.00,WNW,295,0.0,1.0,99,0.00,,,0.00,0.000000,,2013-10-13 09:22:00,
2013-10-13 01:53:00,39.0,39.0,-100.00,NW,306,0.0,2.0,99,0.00,,,0.00,0.000000,,2013-10-13 09:53:00,
2013-10-13 02:03:00,39.0,39.0,-100.00,NW,306,0.0,2.0,99,0.00,,,0.00,0.000000,,2013-10-13 10:03:00,
2013-10-13 02:13:00,39.0,39.0,-100.00,NW,306,0.0,2.0,99,0.00,,,0.00,0.000000,,2013-10-13 10:13:00,
2013-10-13 02:23:00,39.0,39.0,-100.00,NW,306,0.0,2.0,99,0.00,,,0.00,0.000000,,2013-10-13 10:23:00,
2013-10-13 02:53:00,39.0,39.0,-100.00,NW,305,0.0,1.0,99,0.00,,,0.00,0.000000,,2013-10-13 10:53:00,
2013-10-13 03:03:00,39.0,39.0,-100.00,NW,305,0.0,1.0,99,0.00,,,0.00,0.000000,,2013-10-13 11:03:00,
2013-10-13 03:12:00,39.0,39.0,-100.00,NW,305,0.0,1.0,99,0.00,,,0.00,0.000000,,2013-10-13 11:12:00,
2013-10-13 03:21:00,39.0,39.0,-100.00,NW,305,0.0,1.0,99,0.00,,,0.00,0.000000,,2013-10-13 11:21:00,
2013-10-13 03:52:00,39.0,39.0,-100.00,NW,315,0.0,1.0,99,0.00,,,0.00,0.000000,,2013-10-13 11:52:00,
2013-10-13 04:01:00,39.0,39.0,-100.00,NW,315,0.0,1.0,99,0.00,,,0.00,0.000000,,2013-10-13 12:01:00,
2013-10-13 04:12:00,39.0,39.0,-100.00,NW,315,0.0,1.0,99,0.00,,,0.00,0.000000,,2013-10-13 12:12:00,
2013-10-13 04:21:00,39.0,39.0,-100.00,NW,315,0.0,1.0,99,0.00,,,0.00,0.000000,,2013-10-13 12:21:00,
2013-10-13 04:52:00,39.0,39.0,-100.00,NNE,33,0.0,1.0,99,0.00,,,0.00,0.000000,,2013-10-13 12:52:00,
2013-10-13 05:02:00,39.0,39.0,-100.00,NNE,33,0.0,1.0,99,0.00,,,0.00,0.000000,,2013-10-13 13:02:00,
2013-10-13 05:12:00,39.0,39.0,-100.00,NNE,33,0.0,1.0,99,0.00,,,0.00,0.000000,,2013-10-13 13:12:00,
2013-10-13 05:21:00,39.0,39.0,-100.00,NNE,33,0.0,1.0,99,0.00,,,0.00,0.000000,,2013-10-13 13:21:00,
2013-10-13 05:52:00,39.0,39.0,-100.00,NNW,335,0.0,1.0,100,0.00,,,0.00,0.000000,,2013-10-13 13:52:00,
2013-10-13 06:02:00,39.0,39.0,-100.00,NNW,335,0.0,1.0,100,0.00,,,0.00,0.000000,,2013-10-13 14:02:00,
2013-10-13 06:11:00,39.0,39.0,-100.00,NNW,335,0.0,1.0,100,0.00,,,0.00,0.000000,,2013-10-13 14:11:00,
2013-10-13 06:21:00,39.0,39.0,-100.00,NNW,335,0.0,1.0,100,0.00,,,0.00,0.000000,,2013-10-13 14:21:00,
2013-10-13 06:52:00,39.0,39.0,-100.00,NNW,339,0.0,0.0,100,0.00,,,-99.99,0.000000,,2013-10-13 14:52:00,
2013-10-13 07:01:00,39.0,39.0,-100.00,NNW,339,0.0,0.0,100,0.00,,,-99.99,0.000000,,2013-10-13 15:01:00,
2013-10-13 07:12:00,39.0,39.0,-100.00,NNW,339,0.0,0.0,100,0.00,,,-99.99,0.000000,,2013-10-13 15:12:00,
2013-10-13 07:22:00,39.0,39.0,-100.00,NNW,339,0.0,0.0,100,0.00,,,-99.99,0.000000,,2013-10-13 15:22:00,
2013-10-13 07:54:00,39.0,39.0,-100.00,NW,321,0.0,2.0,100,0.00,,,0.00,0.000000,,2013-10-13 15:54:00,
2013-10-13 08:03:00,39.0,39.0,-100.00,NW,321,0.0,2.0,100,0.00,,,0.00,0.000000,,2013-10-13 16:03:00,
2013-10-13 08:12:00,39.0,39.0,-100.00,NW,321,0.0,2.0,100,0.00,,,0.00,0.000000,,2013-10-13 16:12:00,
2013-10-13 08:23:00,39.0,39.0,-100.00,NW,321,0.0,2.0,100,0.00,,,0.00,0.000000,,2013-10-13 16:23:00,
2013-10-13 08:54:00,39.0,39.0,-100.00,NW,325,0.0,2.0,100,0.00,,,0.00,1.000000,,2013-10-13 16:54:00,
2013-10-13 09:03:00,39.0,39.0,-100.00,NW,325,0.0,2.0,100,0.00,,,0.00,1.000000,,2013-10-13 17:03:00,
2013-10-13 09:12:00,39.0,39.0,-100.00,NW,325,0.0,2.0,100,0.00,,,0.00,1.000000,,2013-10-13 17:12:00,
2013-10-13 09:22:00,39.0,39.0,-100.00,NW,325,0.0,2.0,100,0.00,,,0.00,1.000000,,2013-10-13 17:22:00,
2013-10-13 09:52:00,39.0,39.0,-100.00,North,7,0.0,1.0,100,0.01,,,0.01,14.000000,,2013-10-13 17:52:00,
2013-10-13 10:02:00,39.0,39.0,-100.00,North,7,0.0,1.0,100,0.01,,,0.01,14.000000,,2013-10-13 18:02:00,
2013-10-13 10:12:00,39.0,39.0,-100.00,North,7,0.0,1.0,100,0.01,,,0.01,14.000000,,2013-10-13 18:12:00,
2013-10-13 10:21:00,39.0,39.0,-100.00,North,7,0.0,1.0,100,0.01,,,0.01,14.000000,,2013-10-13 18:21:00,
2013-10-13 10:52:00,41.0,41.0,-100.00,NNE,13,0.0,3.0,100,-99.99,,,0.00,42.000000,,2013-10-13 18:52:00,
2013-10-13 11:01:00,41.0,41.0,-100.00,NNE,13,0.0,3.0,100,-99.99,,,0.00,42.000000,,2013-10-13 19:01:00,
2013-10-13 11:11:00,41.0,41.0,-100.00,NNE,13,0.0,3.0,100,-99.99,,,0.00,42.000000,,2013-10-13 19:11:00,
2013-10-13 11:21:00,41.0,41.0,-100.00,NNE,13,0.0,3.0,100,-99.99,,,0.00,42.000000,,2013-10-13 19:21:00,
2013-10-13 11:52:00,41.0,40.0,-100.00,NNE,19,0.0,3.0,97,0.00,,,0.00,35.000000,,2013-10-13 19:52:00,
2013-10-13 12:02:00,41.0,40.0,-100.00,NNE,19,0.0,3.0,97,0.00,,,0.00,35.000000,,2013-10-13 20:02:00,
2013-10-13 12:12:00,41.0,40.0,-100.00,NNE,19,0.0,3.0,97,0.00,,,0.00,35.000000,,2013-10-13 20:12:00,
2013-10-13 12:22:00,41.0,40.0,-100.00,NNE,19,0.0,3.0,97,0.00,,,0.00,35.000000,,2013-10-13 20:22:00,
2013-10-13 12:52:00,43.0,41.0,-100.00,NE,40,0.0,1.0,94,0.00,,,0.00,48.000000,,2013-10-13 20:52:00,
2013-10-13 13:02:00,43.0,41.0,-100.00,NE,40,0.0,1.0,94,0.00,,,0.00,48.000000,,2013-10-13 21:02:00,
2013-10-13 13:11:00,43.0,41.0,-100.00,NE,40,0.0,1.0,94,0.00,,,0.00,48.000000,,2013-10-13 21:11:00,
2013-10-13 13:21:00,43.0,41.0,-100.00,NE,40,0.0,1.0,94,0.00,,,0.00,48.000000,,2013-10-13 21:21:00,
2013-10-13 13:24:00,43.0,40.0,-100.00,ENE,57,1.0,2.0,91,0.00,,,0.00,74.000000,,2013-10-13 21:24:00,
2013-10-13 13:55:00,43.0,40.0,-100.00,ENE,57,1.0,2.0,91,0.00,,,0.00,74.000000,,2013-10-13 21:55:00,
2013-10-13 14:03:00,43.0,40.0,-100.00,ENE,57,1.0,2.0,91,0.00,,,0.00,74.000000,,2013-10-13 22:03:00,
2013-10-13 14:13:00,43.0,40.0,-100.00,ENE,57,1.0,2.0,91,0.00,,,0.00,74.000000,,2013-10-13 22:13:00,
2013-10-13 14:53:00,43.0,40.0,-100.00,ENE,77,1.0,3.0,91,0.00,,,0.00,83.000000,,2013-10-13 22:53:00,
2013-10-13 15:02:00,43.0,40.0,-100.00,ENE,77,1.0,3.0,91,0.00,,,0.00,83.000000,,2013-10-13 23:02:00,
2013-10-13 15:12:00,43.0,40.0,-100.00,ENE,77,1.0,3.0,91,0.00,,,0.00,83.000000,,2013-10-13 23:12:00,
2013-10-13 15:21:00,43.0,40.0,-100.00,ENE,77,1.0,3.0,91,0.00,,,0.00,83.000000,,2013-10-13 23:21:00,
2013-10-13 15:52:00,43.0,41.0,-100.00,East,90,2.0,3.0,94,0.00,,,0.00,65.000000,,2013-10-13 23:52:00,
2013-10-13 16:01:00,43.0,41.0,-100.00,East,90,2.0,3.0,94,0.00,,,0.00,65.000000,,2013-10-14 00:01:00,
2013-10-13 16:12:00,43.0,41.0,-100.00,East,90,2.0,3.0,94,0.00,,,0.00,65.000000,,2013-10-14 00:12:00,
2013-10-13 16:21:00,43.0,41.0,-100.00,East,90,2.0,3.0,94,0.00,,,0.00,65.000000,,2013-10-14 00:21:00,
2013-10-13 16:52:00,43.0,42.0,-100.00,NE,54,1.0,3.0,97,0.01,,,0.01,30.000000,,2013-10-14 00:52:00,
2013-10-13 17:02:00,43.0,42.0,-100.00,NE,54,1.0,3.0,97,0.01,,,0.01,30.000000,,2013-10-14 01:02:00,
2013-10-13 17:11:00,43.0,42.0,-100.00,NE,54,1.0,3.0,97,0.01,,,0.01,30.000000,,2013-10-14 01:11:00,
2013-10-13 17:21:00,43.0,42.0,-100.00,NE,54,1.0,3.0,97,0.01,,,0.01,30.000000,,2013-10-14 01:21:00,
2013-10-13 17:52:00,43.0,42.0,-100.00,ENE,66,1.0,2.0,98,0.01,,,0.02,16.000000,,2013-10-14 01:52:00,
2013-10-13 18:02:00,43.0,42.0,-100.00,ENE,66,1.0,2.0,98,0.01,,,0.02,16.000000,,2013-10-14 02:02:00,
2013-10-13 18:11:00,43.0,42.0,-100.00,ENE,66,1.0,2.0,98,0.01,,,0.02,16.000000,,2013-10-14 02:11:00,
2013-10-13 18:21:00,43.0,42.0,-100.00,ENE,66,1.0,2.0,98,0.01,,,0.02,16.000000,,2013-10-14 02:21:00,
2013-10-13 18:52:00,41.0,40.0,-100.00,NE,56,2.0,3.0,98,-99.99,,,0.00,4.000000,,2013-10-14 02:52:00,
2013-10-13 19:02:00,41.0,40.0,-100.00,NE,56,2.0,3.0,98,-99.99,,,0.00,4.000000,,2013-10-14 03:02:00,
2013-10-13 19:12:00,41.0,40.0,-100.00,NE,56,2.0,3.0,98,-99.99,,,0.00,4.000000,,2013-10-14 03:12:00,
2013-10-13 19:22:00,41.0,40.0,-100.00,NE,56,2.0,3.0,98,-99.99,,,0.00,4.000000,,2013-10-14 03:22:00,
2013-10-13 19:24:00,41.0,41.0,-100.00,NE,53,2.0,3.0,99,0.02,,,0.02,0.000000,,2013-10-14 03:24:00,
2013-10-13 19:55:00,41.0,41.0,-100.00,NE,53,2.0,3.0,99,0.02,,,0.02,0.000000,,2013-10-14 03:55:00,
2013-10-13 20:04:00,41.0,41.0,-100.00,NE,53,2.0,3.0,99,0.02,,,0.02,0.000000,,2013-10-14 04:04:00,
2013-10-13 20:14:00,41.0,41.0,-100.00,NE,53,2.0,3.0,99,0.02,,,0.02,0.000000,,2013-10-14 04:14:00,
2013-10-13 20:54:00,43.0,41.0,-100.00,ENE,57,3.0,6.0,95,0.05,,,0.07,0.000000,,2013-10-14 04:54:00,
2013-10-13 21:03:00,43.0,41.0,-100.00,ENE,57,3.0,6.0,95,0.05,,,0.07,0.000000,,2013-10-14 05:03:00,
2013-10-13 21:12:00,43.0,41.0,-100.00,ENE,57,3.0,6.0,95,0.05,,,0.07,0.000000,,2013-10-14 05:12:00,
2013-10-13 21:22:00,43.0,41.0,-100.00,ENE,57,3.0,6.0,95,0.05,,,0.07,0.000000,,2013-10-14 05:22:00,
2013-10-13 21:52:00,45.0,43.0,-100.00,ENE,60,5.0,8.0,93,-99.99,,,0.06,0.000000,,2013-10-14 05:52:00,
2013-10-13 22:02:00,45.0,43.0,-100.00,ENE,60,5.0,8.0,93,-99.99,,,0.06,0.000000,,2013-10-14 06:02:00,
2013-10-13 22:12:00,45.0,43.0,-100.00,ENE,60,5.0,8.0,93,-99.99,,,0.06,0.000000,,2013-10-14 06:12:00,
2013-10-13 22:22:00,45.0,43.0,-100.00,ENE,60,5.0,8.0,93,-99.99,,,0.06,0.000000,,2013-10-14 06:22:00,
2013-10-13 22:52:00,45.0,43.0,-100.00,ENE,57,5.0,9.0,93,0.06,,,0.12,0.000000,,2013-10-14 06:52:00,
2013-10-13 23:01:00,45.0,43.0,-100.00,ENE,57,5.0,9.0,93,0.06,,,0.12,0.000000,,2013-10-14 07:01:00,
2013-10-13 23:11:00,45.0,43.0,-100.00,ENE,57,5.0,9.0,93,0.06,,,0.12,0.000000,,2013-10-14 07:11:00,
2013-10-13 23:22:00,45.0,43.0,-100.00,ENE,57,5.0,9.0,93,0.06,,,0.12,0.000000,,2013-10-14 07:22:00,
2013-10-13 23:52:00,45.0,43.0,-100.00,ENE,67,6.0,10.0,93,0.03,,,0.15,0.000000,,2013-10-14 07:52:00,